Change the Weather History Date:

Thursday, October 11, 2012

  Actual Average Record
Temperature  
Mean Temperature 84 °F 77 °F  
Max Temperature 91 °F 87 °F 97 °F (1894)
Min Temperature 76 °F 68 °F 49 °F (1990)
Degree Days  
Heating Degree Days 0 0  
Month to date heating degree days 0 0  
Since 1 July heating degree days 0 0  
Cooling Degree Days 19 12  
Month to date cooling degree days 145 145  
Year to date cooling degree days 4157 3556  
Growing Degree Days 32 (Base 50)    
Moisture  
Dew Point 74 °F    
Average Humidity 77    
Maximum Humidity 94    
Minimum Humidity 59    
Precipitation  
Precipitation 0.00 in 0.13 in 5.60 in (1887)
Month to date precipitation 0.08 1.57  
Year to date precipitation 20.20 22.30  
Sea Level Pressure  
Sea Level Pressure 30.05 in    
Wind  
Wind Speed 10 mph (ESE)    
Max Wind Speed 22 mph    
Max Gust Speed 29 mph    
Visibility 10 miles    
Events      
T = Trace of Precipitation, MM = Missing Value Source: NWS Daily Summary

Daily Weather History Graph

Daily Weather History Graph

Search for Another Location

Airport or City:

Trip Planner

Search our weather history database for the weather conditions in past years. The results will help you decide how hot, cold, wet, or windy it might be!

Date:

Astronomy

Oct. 11, 2012 Rise Set
Actual Time 7:26 AM CDT 7:05 PM CDT
Civil Twilight 7:03 AM CDT 7:28 PM CDT
Nautical Twilight 6:36 AM CDT 7:55 PM CDT
Astronomical Twilight 6:10 AM CDT 8:21 PM CDT
Moon 3:29 AM CDT (10/11) 4:23 PM CDT (10/11)
Length of Visible Light 12h 24m
Length of Day
11h 38m
Waning Crescent, 18% of the Moon is Illuminated
Oct 11
Waning Crescent
Oct 15
New
Oct 21
First Quarter
Oct 29
Full
Nov 6
Last Quarter

Hourly Weather History & Observations

Time (CDT) Temp. Heat Index Dew Point Humidity Pressure Visibility Wind Dir Wind Speed Gust Speed Precip Events Conditions
12:53 AM 79.0 °F - 75.0 °F 88% 30.04 in 10.0 mi SE 6.9 mph - N/A   Clear
1:53 AM 79.0 °F - 75.9 °F 90% 30.03 in 10.0 mi SE 8.1 mph - N/A   Clear
2:53 AM 78.1 °F - 75.0 °F 90% 30.01 in 10.0 mi SE 6.9 mph - N/A   Clear
3:53 AM 77.0 °F - 75.0 °F 94% 30.01 in 10.0 mi SSE 4.6 mph - N/A   Clear
4:53 AM 75.9 °F - 73.9 °F 94% 30.00 in 10.0 mi SE 3.5 mph - N/A   Clear
5:53 AM 77.0 °F - 73.9 °F 90% 30.01 in 10.0 mi ESE 4.6 mph - N/A   Clear
6:53 AM 77.0 °F - 75.0 °F 94% 30.03 in 10.0 mi ESE 5.8 mph - N/A   Clear
7:53 AM 77.0 °F - 75.0 °F 94% 30.04 in 10.0 mi ESE 5.8 mph - N/A   Clear
8:53 AM - - - N/A% 30.06 in 10.0 mi SE 9.2 mph - N/A   Clear
9:43 AM 84.2 °F 92.3 °F 75.2 °F 74% 30.08 in 10.0 mi SE 12.7 mph 21.9 mph N/A   Mostly Cloudy
9:53 AM 86.0 °F 95.1 °F 75.0 °F 70% 30.09 in 10.0 mi SE 17.3 mph 20.7 mph N/A   Mostly Cloudy
10:16 AM 86.0 °F 93.4 °F 73.4 °F 66% 30.09 in 10.0 mi SE 19.6 mph 24.2 mph N/A   Mostly Cloudy
10:42 AM 84.2 °F 90.9 °F 73.4 °F 70% 30.10 in 10.0 mi ESE 12.7 mph 23.0 mph N/A   Mostly Cloudy
10:53 AM 86.0 °F 93.8 °F 73.9 °F 67% 30.09 in 10.0 mi SE 12.7 mph 21.9 mph N/A   Mostly Cloudy
11:11 AM 87.8 °F 97.6 °F 75.2 °F 66% 30.10 in 10.0 mi SE 16.1 mph 25.3 mph N/A   Overcast
11:53 AM 87.1 °F 93.6 °F 72.0 °F 61% 30.09 in 10.0 mi ESE 16.1 mph 23.0 mph N/A   Mostly Cloudy
12:53 PM 90.0 °F 97.9 °F 73.0 °F 57% 30.08 in 10.0 mi SE 16.1 mph 28.8 mph N/A   Partly Cloudy
1:53 PM 88.0 °F 96.5 °F 73.9 °F 63% 30.05 in 10.0 mi SE 17.3 mph 24.2 mph N/A   Scattered Clouds
2:53 PM 87.1 °F 95.4 °F 73.9 °F 65% 30.04 in 10.0 mi ESE 16.1 mph 24.2 mph N/A   Scattered Clouds
3:53 PM 89.1 °F 98.0 °F 73.9 °F 61% 30.03 in 10.0 mi SE 16.1 mph 24.2 mph N/A   Clear
4:53 PM 88.0 °F 96.5 °F 73.9 °F 63% 30.02 in 10.0 mi SE 15.0 mph - N/A   Partly Cloudy
5:53 PM 86.0 °F 93.8 °F 73.9 °F 67% 30.02 in 10.0 mi ESE 12.7 mph 20.7 mph N/A   Scattered Clouds
6:17 PM 84.2 °F 90.9 °F 73.4 °F 70% 30.02 in 10.0 mi ESE 13.8 mph 20.7 mph N/A   Mostly Cloudy
6:53 PM 82.9 °F 89.4 °F 73.9 °F 74% 30.03 in 10.0 mi ESE 12.7 mph - N/A   Mostly Cloudy
7:28 PM 82.4 °F 88.2 °F 73.4 °F 74% 30.04 in 10.0 mi East 12.7 mph - N/A   Scattered Clouds
7:53 PM 81.0 °F 86.2 °F 73.9 °F 79% 30.04 in 10.0 mi East 8.1 mph - N/A   Clear
8:53 PM 80.1 °F 85.1 °F 75.0 °F 85% 30.06 in 10.0 mi East 6.9 mph - N/A   Clear
9:53 PM 80.1 °F 85.1 °F 75.0 °F 85% 30.07 in 10.0 mi East 8.1 mph - N/A   Clear
10:53 PM 79.0 °F - 75.0 °F 88% 30.08 in 10.0 mi ESE 5.8 mph - N/A   Clear
11:53 PM 78.1 °F - 75.0 °F 90% 30.08 in 10.0 mi ESE 6.9 mph - N/A   Clear